User: anonymous   Login
Location: Tel Aviv
(32.0670°N, 34.7670°E)
Time: 11:45:37
(UTC+02:00)
Language:

NOAA 19 - Orbit

View from above orbital plane
View from above orbital plane
View from above satellite
View from above satellite

Ground track
Ground track

The orbit data is extracted from the following two-line orbital elements,

1 33591U 09005A   23332.90805070  .00000359  00000-0  21731-3 0  9991
2 33591  99.0785  21.3021 0014500 137.0448 223.1858 14.12875260762940
Epoch (UTC): 28 November 2023 21:47:35
Eccentricity: 0.0014500
inclination: 99.0785°
perigee height: 839 km
apogee height: 860 km
right ascension of ascending node: 21.3021°
argument of perigee: 137.0448°
revolutions per day: 14.12875260
mean anomaly at epoch: 223.1858°
orbit number at epoch: 76294

The dashed part of the orbit path shows where the satellite is in the earth's shadow,  

DLR